OEGS

Details ICAO OEGS (ELQ)
Name GASSIM
Region Saudi Arabia
Timezone Asia/Riyadh (UTC+3.0)
Plans Departing 29
Arriving 24
Stats Elevation 2,126 ft / 648 m (AMSL)
Location 26.302823° 43.773911°
Runways 1
Magnetic Variation 3.588° E
Sunrise 2018-05-26 02:15:21 UTC / 2018-05-26 05:15:21 Local
Sunset 2018-05-26 15:51:24 UTC / 2018-05-26 18:51:24 Local
Advertisement - Login to hide

Runways

ID Width Length Bearing (true) Bearing (mag) Surface Threshold Offset Overrun Length
15 147 ft / 45 m 9,858 ft / 3,005 m 152.76° 149.17° Asphalt 0 ft / 0 m 992 ft / 302 m
33 147 ft / 45 m 9,858 ft / 3,005 m 332.76° 329.17° Asphalt 0 ft / 0 m 984 ft / 300 m

Approach Navaids

Runway Type Ident Frequency Range Bearing (true) Bearing (mag) Slope Elevation
15 Localiser IGAS 110.10 MHz 18 nm / 33 km 152.53° 148.94° - 2,120 ft / 646 m (AMSL)
15 Glidescope IGAS 110.10 MHz 10 nm / 19 km 152.76° 149.17° 3.00° 2,126 ft / 648 m (AMSL)

Map

Weather


0- 5 10 15 20 25 30 35+ Temperature / ° C

Clouds and Precipitation
Forecast for 2018-05-26 06:00 UTC. Updated 3 hours ago

Ground ~20,000 ft ~40,000 ft Winds

METAR

OEGS 260700Z 14013KT CAVOK 35/11 Q1012

TAF

Not found

Frequencies

Ground 121.90 MHz GND
Tower 118.00 MHz TWR
Tower 131.50 MHz SAUDIA RDO
Warning: Do not use this data for real-world aviation or navigation. No guarantee of current accuracy is given.